Location: *
(46.4000°N, 12.6667°E)
Time: 12:38:10
(UTC+00:00)

ATLAS CENTAUR R/B - Pass Details

Date: 09 April 2020
Orbit: 466 x 681 km, 64.7° (Epoch: 20 May)

Event Time Altitude Azimuth Distance (km) Brightness Sun altitude
Rises 20:16:45 0° 328° (NNW) 2,676 6.1 -23.3°
Reaches altitude 10° 20:19:09 10° 337° (NNW) 1,747 4.8 -23.6°
Enters shadow 20:22:08 32° 23° (NNE) 875 2.4 -23.9°
